Flag for Netherlands Weather past 2 weeks in Breda, Netherlands

Now
52 °F

Fog.


Feels Like: 52 °F
Forecast: 49 / 65 °F
Wind: 2 mph from Southwest

Location: Gilze-Rijen


UV Index: 3 (Moderate)

Visibility: 4 mi


Pressure: 30.07 "Hg

Humidity: 88%

Dew point: 48 °F

Location of BredaLocation

Historic Weather in Breda

°F

Breda temperature yesterday

Maximum temperature yesterday: 64 °F (at 2:55 PM)
Minimum temperature yesterday: 46 °F (at 11:55 PM)
Average temperature yesterday: 56 °F

Past Weeks' High & Low Weather Summary

 TemperatureHumidityPressure
High72 °F (Apr 20, 1:55 PM)100% (Apr 9, 3:55 AM)30.45 "Hg (Apr 9, 3:55 AM)
Low32 °F (Apr 16, 4:55 AM)30% (Apr 17, 3:55 PM)29.62 "Hg (Apr 20, 5:25 PM)
Average51 °F72%30.06 "Hg
* Reported Apr 8 8:25 AM — Apr 23 8:25 AM, Breda, Weather by CustomWeather, © 2014

Note: Actual official high and low records may vary slightly from our data, if they occured in-between our weather recording intervals... More about our weather records

Advertising

Historic Weather Conditions — Data for Previous 24 hours

 ConditionsComfort  
Time TempWeatherWind HumidityBarometerVisibility
8:25 AM
Apr 23
48 °FFog.2 mph100%30.07 "Hg3 mi
7:55 AM45 °FFog.3 mph100%30.07 "Hg3 mi
7:25 AM45 °FFog.3 mph100%30.07 "Hg4 mi
7:00 AM43 °FFog.1 mph100%30.04 "Hg3 mi
6:55 AM45 °FFog.1 mph93%30.04 "Hg2 mi
6:25 AM45 °FFog.1 mph100%30.04 "Hg3 mi
5:55 AM45 °FFog.2 mph93%30.04 "Hg5 mi
5:25 AM45 °FOvercast.2 mph100%30.04 "HgN/A
4:55 AM43 °FOvercast.1 mph100%30.04 "HgN/A
4:25 AM43 °FOvercast.2 mph93%30.04 "HgN/A
3:59 AM43 °FFog.2 mph100%30.01 "Hg4 mi
3:55 AM43 °FQuite cool.3 mph100%30.01 "HgN/A
3:25 AM43 °FFog.2 mph100%30.01 "Hg4 mi
2:55 AM43 °FQuite cool.2 mph93%30.01 "HgN/A
2:25 AM45 °FQuite cool.2 mph93%30.01 "HgN/A
1:55 AM43 °FQuite cool.2 mph100%30.01 "HgN/A
1:25 AM43 °FQuite cool.3 mph93%30.01 "HgN/A
12:55 AM46 °FCool.2 mph93%30.01 "HgN/A
12:25 AM46 °FCool.5 mph87%30.01 "HgN/A
11:55 PM
Apr 22
46 °FCool.2 mph87%29.98 "HgN/A
11:25 PM48 °FCool.1 mph87%29.98 "HgN/A
10:55 PM50 °FCool.3 mph82%29.98 "HgN/A
10:25 PM52 °FCool.3 mph82%29.95 "HgN/A
9:55 PM54 °FCool.5 mph72%29.95 "HgN/A
9:25 PM55 °FCool.2 mph72%29.95 "HgN/A
8:55 PM57 °FCool.1 mph72%29.92 "HgN/A
8:25 PM59 °FCool.3 mph68%29.92 "HgN/A
7:55 PM61 °FPassing clouds.5 mph72%29.92 "HgN/A
7:25 PM63 °FPartly sunny.No wind64%29.92 "HgN/A
6:55 PM61 °FOvercast.No wind68%29.89 "HgN/A
6:25 PM61 °FBroken clouds.5 mph63%29.89 "HgN/A
5:55 PM63 °FLight rain. More clouds than sun.7 mph56%29.89 "HgN/A
5:25 PM64 °FMostly cloudy.6 mph49%29.89 "HgN/A
4:55 PM64 °FOvercast.3 mph49%29.89 "HgN/A
4:25 PM64 °FScattered clouds.9 mph49%29.89 "HgN/A
3:55 PM64 °FScattered clouds.9 mph49%29.86 "HgN/A
3:25 PM64 °FPartly sunny.6 mph49%29.86 "HgN/A
2:55 PM64 °FPartly sunny.7 mph49%29.86 "HgN/A
2:25 PM63 °FPartly sunny.7 mph52%29.86 "HgN/A
1:55 PM63 °FScattered clouds.9 mph52%29.86 "HgN/A
1:25 PM63 °FPartly sunny.9 mph52%29.86 "HgN/A
12:55 PM63 °FPartly sunny.13 mph56%29.86 "HgN/A
12:25 PM59 °FOvercast.8 mph59%29.83 "HgN/A
11:58 AM59 °FOvercast.8 mph59%29.83 "HgN/A
11:25 AM57 °FOvercast.9 mph72%29.83 "HgN/A
10:55 AM55 °FOvercast.9 mph77%29.83 "HgN/A
10:25 AM54 °FOvercast.8 mph82%29.80 "HgN/A
9:55 AM54 °FFog.7 mph82%29.80 "Hg5 mi
9:25 AM54 °FFog.8 mph88%29.77 "Hg4 mi
9:02 AM52 °FFog.9 mph94%29.77 "Hg4 mi
Weather by CustomWeather, © 2014

See weather overview